FW7659 Weather Reports


time (UTC)temp
F
wind
direction
speed
knots
gust
knots
rain 1hr
in
rain 24hr
in
rain mn
in
humidity
%
barometer
mb
20260906113404 77 36 0.0 1.7 0.00 0.00 0.00 74 1012.9
20260906112904 77 36 0.0 1.7 0.00 0.00 0.00 73 1013.0
20260906112403 77 36 0.0 0.9 0.00 0.00 0.00 73 1012.8
20260906111904 77 68 0.0 1.7 0.00 0.00 0.00 72 1012.8
20260906111403 77 20 0.0 0.0 0.00 0.00 0.00 72 1012.8
20260906110903 77 20 0.9 1.7 0.00 0.00 0.00 72 1012.8
20260906110403 77 10 0.0 1.7 0.00 0.00 0.00 72 1012.9
20260906104404 76 96 0.0 0.0 0.00 0.00 0.00 73 1012.7
20260906103904 76 96 0.0 0.0 0.00 0.00 0.00 73 1012.7
20260906103404 76 96 0.0 0.0 0.00 0.00 0.00 73 1012.7
20260906102903 77 96 0.0 0.0 0.00 0.00 0.00 73 1012.7
20260906102403 77 96 0.0 0.0 0.00 0.00 0.00 73 1012.8
20260906101903 76 102 0.0 0.0 0.00 0.00 0.00 73 1012.7
20260906101403 76 102 0.0 0.0 0.00 0.00 0.00 73 1012.8
20260906100904 76 102 0.0 0.0 0.00 0.00 0.00 72 1012.7
20260906095404 77 44 0.0 0.0 0.00 0.00 0.00 72 1012.6
20260906093904 76 39 0.0 0.0 0.00 0.00 0.00 73 1012.6
20260906093404 76 86 0.0 0.0 0.00 0.00 0.00 73 1012.8
20260906092405 76 77 0.0 0.0 0.00 0.00 0.00 73 1012.8
20260906091403 76 77 0.0 0.0 0.00 0.00 0.00 72 1012.7
20260906090904 76 77 0.0 0.0 0.00 0.00 0.00 72 1012.7
20260906090404 76 77 0.0 0.0 0.00 0.00 0.00 71 1012.7
20260906085404 76 77 0.0 0.0 0.00 0.00 0.00 73 1012.5
20260906084904 76 77 0.0 0.0 0.00 0.00 0.00 71 1012.5
20260906083904 76 77 0.0 0.0 0.00 0.00 0.00 72 1012.4
20260906082903 76 77 0.0 0.0 0.00 0.00 0.00 70 1012.5
20260906082404 76 77 0.0 0.0 0.00 0.00 0.00 71 1012.6
20260906081905 76 77 0.0 0.0 0.00 0.00 0.00 71 1012.5
20260906081403 76 77 0.0 0.0 0.00 0.00 0.00 71 1012.5
20260906080904 76 77 0.0 0.0 0.00 0.00 0.00 72 1012.4
20260906080404 76 77 0.0 0.0 0.00 0.00 0.00 72 1012.4
20260906075904 76 77 0.0 0.0 0.00 0.00 0.00 72 1012.4
20260906075404 76 77 0.0 0.0 0.00 0.00 0.00 72 1012.4
20260906074903 76 77 0.0 0.0 0.00 0.00 0.00 72 1012.4
20260906074404 76 77 0.0 0.0 0.00 0.00 0.00 72 1012.4
20260906073904 76 77 0.0 0.0 0.00 0.00 0.00 71 1012.4
20260906073403 77 77 0.0 0.0 0.00 0.00 0.00 71 1012.4
20260906071404 77 77 0.0 0.0 0.00 0.00 0.00 71 1012.6
20260906070904 77 77 0.0 0.0 0.00 0.00 0.00 71 1012.6
20260906070404 76 77 0.0 0.0 0.00 0.00 0.00 72 1012.7
20260906065404 77 77 0.0 0.0 0.00 0.00 0.00 71 1012.6
20260906064904 77 77 0.0 0.0 0.00 0.00 0.00 70 1012.6
20260906064404 77 77 0.0 0.0 0.00 0.00 0.00 69 1012.5
20260906063903 77 77 0.0 0.0 0.00 0.00 0.00 68 1012.5
20260906062904 78 77 0.0 0.0 0.00 0.00 0.00 67 1012.6
20260906062404 78 76 0.0 0.0 0.00 0.00 0.00 67 1012.5
20260906061904 78 70 0.0 0.0 0.00 0.00 0.00 67 1012.6
20260906061404 78 70 0.0 0.0 0.00 0.00 0.00 68 1012.8
20260906060903 78 70 0.0 0.0 0.00 0.00 0.00 68 1012.9
20260906060404 77 70 0.0 0.0 0.00 0.00 0.00 69 1013.0
20260906055904 77 70 0.0 0.0 0.00 0.00 0.00 69 1013.1
20260906054904 77 70 0.0 0.0 0.00 0.00 0.00 70 1013.1
20260906054403 77 70 0.0 0.0 0.00 0.00 0.00 71 1013.3
20260906053404 77 67 0.0 0.0 0.00 0.00 0.00 71 1013.5
20260906052904 76 47 0.0 0.0 0.00 0.00 0.00 72 1013.4
20260906052404 76 47 0.0 0.0 0.00 0.00 0.00 72 1013.5
20260906051904 76 47 0.0 0.0 0.00 0.00 0.00 72 1013.5
20260906050404 75 45 0.0 0.0 0.00 0.00 0.00 76 1013.6
20260906045904 75 45 0.0 0.0 0.00 0.00 0.00 77 1013.6
20260906045404 75 45 0.0 0.0 0.00 0.00 0.00 78 1013.6
20260906044904 75 45 0.0 0.0 0.00 0.00 0.00 76 1013.7
20260906044404 75 17 0.0 0.0 0.00 0.00 0.00 76 1013.8
20260906043904 75 17 0.0 0.0 0.00 0.00 0.00 77 1013.8
20260906043404 75 17 0.0 0.0 0.00 0.00 0.00 77 1013.8
20260906042904 74 17 0.0 0.0 0.00 0.00 0.00 79 1013.8
20260906042404 74 17 0.0 0.0 0.00 0.00 0.00 79 1013.7
20260906041904 74 17 0.0 0.0 0.00 0.00 0.00 81 1013.7
20260906041404 74 17 0.0 0.0 0.00 0.00 0.00 81 1013.8
20260906040904 74 17 0.0 0.0 0.00 0.00 0.00 81 1013.8
20260906040404 74 17 0.0 0.0 0.00 0.00 0.00 81 1013.7
20260906035904 74 17 0.0 0.0 0.00 0.00 0.00 82 1013.7
20260906035403 74 17 0.0 0.0 0.00 0.00 0.00 82 1013.7
20260906034904 74 17 0.0 0.0 0.00 0.00 0.00 81 1013.7
20260906033904 74 17 0.0 0.0 0.00 0.00 0.00 82 1013.7
20260906032903 75 17 0.0 0.0 0.00 0.00 0.00 81 1013.9
20260906032404 76 26 0.0 0.0 0.00 0.00 0.00 78 1013.8
20260906031904 75 142 0.0 0.0 0.00 0.00 0.00 79 1013.8
20260906031404 75 142 0.0 0.0 0.00 0.00 0.00 79 1013.8
20260906030903 75 142 0.0 0.0 0.00 0.00 0.00 80 1013.7
20260906030404 75 142 0.0 0.0 0.00 0.00 0.00 80 1013.8
20260906025904 75 142 0.0 0.0 0.00 0.00 0.00 81 1013.9
20260906025403 75 142 0.0 0.0 0.00 0.00 0.00 81 1014.0
20260906024904 75 142 0.0 0.0 0.00 0.00 0.00 81 1014.1
20260906024403 76 142 0.0 0.0 0.00 0.00 0.00 81 1014.2
20260906023904 76 142 0.0 0.0 0.00 0.00 0.00 81 1014.2
20260906023404 76 88 0.0 0.0 0.00 0.00 0.00 79 1014.3
20260906022903 77 91 0.0 0.0 0.00 0.00 0.00 79 1014.2
20260906022404 77 91 0.0 0.0 0.00 0.00 0.00 78 1014.2
20260906021904 78 91 0.0 0.0 0.00 0.00 0.00 77 1014.1
20260906021403 78 91 0.0 0.0 0.00 0.00 0.00 77 1014.1
20260906015904 78 91 0.0 0.0 0.00 0.00 0.00 75 1014.0
20260906015404 79 91 0.0 0.0 0.00 0.00 0.00 74 1013.9
20260906013904 78 91 0.0 0.0 0.00 0.00 0.00 73 1013.8
20260906013403 78 91 0.0 0.0 0.00 0.00 0.00 75 1013.7
20260906012904 78 91 0.0 0.0 0.00 0.00 0.00 74 1013.6
20260906012404 78 91 0.0 0.0 0.00 0.00 0.00 74 1013.4
20260906011904 78 91 0.0 0.0 0.00 0.00 0.00 74 1013.2
20260906011403 78 88 0.0 0.0 0.00 0.00 0.00 74 1013.2
20260906010903 78 86 0.0 0.0 0.00 0.00 0.00 75 1013.0
20260906010404 78 86 0.0 0.0 0.00 0.00 0.00 76 1012.7
20260906005903 78 86 0.0 0.0 0.00 0.00 0.00 74 1012.7
20260906005404 79 86 0.0 0.0 0.00 0.00 0.00 72 1012.8
20260906004403 79 88 0.0 0.0 0.00 0.00 0.00 71 1012.5
20260906003904 79 88 0.0 0.0 0.00 0.00 0.00 74 1012.4
20260906003404 78 88 0.0 0.0 0.00 0.00 0.00 74 1012.3
20260906002903 78 88 0.0 0.0 0.00 0.00 0.00 77 1012.3
20260906002403 78 88 0.0 0.0 0.00 0.00 0.00 79 1012.3
20260906001904 78 88 0.0 0.0 0.00 0.00 0.00 78 1012.2
20260906000904 79 104 0.0 0.0 0.00 0.00 0.00 77 1012.0
20260905235904 79 182 0.0 0.0 0.00 0.00 0.00 76 1011.9
20260905235403 79 182 0.0 0.0 0.00 0.00 0.00 76 1011.8
20260905234904 79 182 0.0 0.0 0.00 0.00 0.00 75 1011.9
20260905233904 79 182 0.0 0.0 0.00 0.00 0.00 74 1012.2
20260905233404 79 182 0.0 0.0 0.00 0.00 0.00 74 1012.4
20260905232903 79 182 0.0 0.0 0.00 0.00 0.00 73 1012.5
20260905232404 79 182 0.0 0.0 0.00 0.00 0.00 72 1012.6
20260905231903 79 182 0.0 0.0 0.00 0.00 0.00 72 1012.7
20260905231404 79 182 0.0 0.0 0.00 0.00 0.00 71 1012.8
20260905230904 80 182 0.0 0.0 0.00 0.00 0.00 72 1012.7
20260905225904 81 182 0.0 0.0 0.00 0.00 0.00 71 1012.5
20260905225404 81 182 0.0 0.0 0.00 0.00 0.00 73 1012.6
20260905224404 81 183 0.0 0.0 0.00 0.00 0.00 72 1012.5
20260905223904 81 183 0.0 0.0 0.00 0.00 0.00 71 1012.6
20260905223404 82 183 0.0 0.0 0.00 0.00 0.00 70 1012.7
20260905222904 82 103 0.0 0.0 0.00 0.00 0.00 72 1012.8
20260905221904 82 96 0.0 0.0 0.00 0.00 0.00 69 1012.7
20260905221403 82 96 0.0 0.0 0.00 0.00 0.00 68 1012.7
20260905220403 83 274 0.0 1.7 0.00 0.00 0.00 69 1012.5
20260905215904 83 280 0.9 2.6 0.00 0.00 0.00 66 1012.3
20260905215403 83 342 0.9 1.7 0.00 0.00 0.00 65 1012.1
20260905214904 83 12 0.9 1.7 0.00 0.00 0.00 66 1012.0
20260905213905 83 12 0.9 1.7 0.00 0.00 0.00 68 1011.8
20260905213404 83 260 0.9 2.6 0.00 0.00 0.00 68 1011.8
20260905211904 84 17 0.0 1.7 0.00 0.00 0.00 66 1012.0
20260905211403 85 29 0.9 2.6 0.00 0.00 0.00 65 1012.1
20260905210903 86 359 0.9 2.6 0.00 0.00 0.00 65 1012.2
20260905205904 87 50 0.9 2.6 0.00 0.00 0.00 63 1012.2
20260905204903 87 51 0.0 1.7 0.00 0.00 0.00 59 1012.2
20260905204404 88 53 0.0 1.7 0.00 0.00 0.00 58 1011.9
20260905203904 88 114 0.0 1.7 0.00 0.00 0.00 54 1011.9
20260905203404 89 38 0.0 1.7 0.00 0.00 0.00 56 1011.8
20260905202903 89 27 0.9 1.7 0.00 0.00 0.00 57 1011.9
20260905202404 88 25 0.9 0.9 0.00 0.00 0.00 60 1012.0
20260905201903 88 11 0.0 0.9 0.00 0.00 0.00 60 1012.3
20260905201404 88 102 0.9 1.7 0.00 0.00 0.00 61 1012.5
20260905200903 88 96 0.0 1.7 0.00 0.00 0.00 60 1012.4
20260905200403 89 84 0.0 1.7 0.00 0.00 0.00 61 1012.3
20260905195904 89 49 0.0 1.7 0.00 0.00 0.00 61 1012.3
20260905195403 89 49 0.0 0.9 0.00 0.00 0.00 58 1012.3
20260905194904 89 52 0.0 2.6 0.00 0.00 0.00 59 1012.3
20260905194404 89 349 0.0 1.7 0.00 0.00 0.00 59 1012.3
20260905193904 89 50 0.9 1.7 0.00 0.00 0.00 59 1012.3
20260905192904 89 32 0.0 1.7 0.00 0.00 0.00 56 1012.5
20260905191404 90 49 0.9 1.7 0.00 0.00 0.00 61 1012.8
20260905190904 90 98 0.0 1.7 0.00 0.00 0.00 57 1012.8
20260905190404 90 318 0.0 0.9 0.00 0.00 0.00 56 1012.8
20260905185904 91 276 0.0 0.9 0.00 0.00 0.00 53 1012.9
20260905185404 92 51 0.9 1.7 0.00 0.00 0.00 55 1012.9
20260905184403 91 33 0.9 1.7 0.00 0.00 0.00 55 1012.8
20260905183904 92 67 0.0 1.7 0.00 0.00 0.00 54 1012.9
20260905183403 92 34 0.0 2.6 0.00 0.00 0.00 58 1012.9
20260905182904 92 267 0.9 2.6 0.00 0.00 0.00 53 1012.9
20260905182404 93 1 0.0 1.7 0.00 0.00 0.00 55 1013.1
20260905181904 92 1 0.0 1.7 0.00 0.00 0.00 54 1013.1
20260905181404 93 340 0.0 0.9 0.00 0.00 0.00 55 1013.3
20260905180903 91 291 0.0 2.6 0.00 0.00 0.00 57 1013.4
20260905180404 92 37 0.9 2.6 0.00 0.00 0.00 57 1013.5
20260905175904 91 307 0.0 0.9 0.00 0.00 0.00 58 1013.6
20260905175404 91 356 0.9 1.7 0.00 0.00 0.00 56 1013.6
20260905174904 91 31 0.9 1.7 0.00 0.00 0.00 56 1013.7
20260905174404 90 19 0.9 1.7 0.00 0.00 0.00 57 1013.7
20260905173404 92 209 0.0 1.7 0.00 0.00 0.00 58 1013.8
20260905172903 91 307 0.0 1.7 0.00 0.00 0.00 60 1013.9
20260905172404 90 307 0.0 0.9 0.00 0.00 0.00 59 1013.9
20260905171904 90 345 0.0 1.7 0.00 0.00 0.00 59 1013.9
20260905171403 90 344 0.9 0.9 0.00 0.00 0.00 61 1014.0
20260905170904 91 318 0.0 0.9 0.00 0.00 0.00 61 1014.1
20260905170404 90 342 0.0 1.7 0.00 0.00 0.00 59 1014.1
20260905165404 90 7 0.0 1.7 0.00 0.00 0.00 63 1014.2
20260905164904 90 159 0.9 1.7 0.00 0.00 0.00 62 1014.2
20260905164404 89 6 0.0 2.6 0.00 0.00 0.00 62 1014.2
20260905163904 89 323 0.9 2.6 0.00 0.00 0.00 64 1014.2
20260905163403 89 356 0.9 1.7 0.00 0.00 0.00 62 1014.4
20260905162403 89 336 0.0 1.7 0.00 0.00 0.00 63 1014.5
20260905161904 89 289 0.9 1.7 0.00 0.00 0.00 64 1014.6
20260905161404 89 10 0.0 1.7 0.00 0.00 0.00 66 1014.7
20260905160903 89 55 0.0 1.7 0.00 0.00 0.00 66 1014.8
20260905160404 88 68 0.0 1.7 0.00 0.00 0.00 66 1014.9
20260905155904 88 33 0.0 0.9 0.00 0.00 0.00 66 1014.9
20260905155404 88 36 0.0 1.7 0.00 0.00 0.00 68 1014.9
20260905154903 87 33 0.9 1.7 0.00 0.00 0.00 67 1015.0
20260905153904 87 14 0.9 1.7 0.00 0.00 0.00 66 1015.1
20260905153404 87 323 0.9 2.6 0.00 0.00 0.00 67 1015.1
20260905152904 87 339 0.9 1.7 0.00 0.00 0.00 66 1015.1
20260905152403 86 24 0.9 2.6 0.00 0.00 0.00 67 1015.1
20260905151904 86 294 0.0 2.6 0.00 0.00 0.00 66 1015.1
20260905151404 87 181 0.0 0.9 0.00 0.00 0.00 69 1015.1
20260905150904 86 355 0.0 1.7 0.00 0.00 0.00 69 1015.1
20260905150404 86 355 0.9 1.7 0.00 0.00 0.00 69 1015.1
20260905145904 86 49 0.9 1.7 0.00 0.00 0.00 70 1015.1
20260905145404 86 14 0.9 1.7 0.00 0.00 0.00 68 1015.1
20260905144904 86 322 0.9 0.9 0.00 0.00 0.00 70 1015.1
20260905143904 85 36 0.0 1.7 0.00 0.00 0.00 72 1015.2
20260905143403 84 44 0.0 0.9 0.00 0.00 0.00 75 1015.3
20260905142905 84 57 0.0 0.9 0.00 0.00 0.00 76 1015.2
20260905142404 83 24 0.0 0.9 0.00 0.00 0.00 75 1015.2
20260905141904 83 24 0.0 1.7 0.00 0.00 0.00 77 1015.2
20260905140904 82 89 0.0 1.7 0.00 0.00 0.00 75 1015.3
20260905135904 81 89 0.0 0.9 0.00 0.00 0.00 79 1015.3
20260905134904 81 89 0.0 1.7 0.00 0.00 0.00 80 1015.5
20260905134404 81 89 0.0 1.7 0.00 0.00 0.00 81 1015.5
20260905133903 81 89 0.0 1.7 0.00 0.00 0.00 80 1015.5
20260905133404 80 89 0.0 0.0 0.00 0.00 0.00 80 1015.6
20260905132904 80 89 0.0 0.0 0.00 0.00 0.00 80 1015.6
20260905131904 80 89 0.0 0.0 0.00 0.00 0.00 80 1015.6
20260905131403 80 89 0.0 0.0 0.00 0.00 0.00 79 1015.6
20260905130903 80 89 0.0 0.0 0.00 0.00 0.00 76 1015.6
20260905125904 80 89 0.0 0.9 0.00 0.00 0.00 76 1015.7
20260905125404 79 89 0.0 0.9 0.00 0.00 0.00 76 1015.7
20260905124904 79 89 0.0 0.0 0.00 0.00 0.00 76 1015.7
20260905123404 79 89 0.0 1.7 0.00 0.00 0.00 76 1015.6
20260905122904 79 89 0.0 0.0 0.00 0.00 0.00 76 1015.6
20260905122404 78 89 0.0 1.7 0.00 0.00 0.00 76 1015.5
20260905121903 78 89 0.0 0.0 0.00 0.00 0.00 76 1015.6
20260905121404 78 89 0.0 1.7 0.00 0.00 0.00 76 1015.5
20260905120903 78 109 0.0 1.7 0.00 0.00 0.00 76 1015.4
20260905120404 78 109 0.0 0.0 0.00 0.00 0.00 76 1015.4
20260905115904 78 109 0.0 0.0 0.00 0.00 0.00 76 1015.3
20260905115404 78 109 0.0 0.0 0.00 0.00 0.00 76 1015.3
20260905114403 77 109 0.0 0.0 0.00 0.00 0.00 76 1015.2
20260905113904 77 109 0.0 0.0 0.00 0.00 0.00 75 1015.1